Grand Prairie, TX

6:29 PM CDT on March 22, 2017 (GMT -0500)
Grand Prairie Municipal

Weather History for KGPM - October, 2013

Change the Weather History Date:

Tuesday, October 22, 2013

  Actual Average (KRBD) Record (KRBD)
Temperature  
Mean Temperature 60 °F -  
Max Temperature 75 °F 74 °F 90 °F (2003)
Min Temperature 44 °F 54 °F 42 °F (2006)
Degree Days  
Heating Degree Days 6    
Growing Degree Days 10 (Base 50)    
Moisture  
Dew Point 42 °F    
Average Humidity 62    
Maximum Humidity 87    
Minimum Humidity 23    
Precipitation  
Precipitation 0.00 in - - ()
Sea Level Pressure  
Sea Level Pressure 30.14 in    
Wind  
Wind Speed 3 mph (WNW)    
Max Wind Speed 9 mph    
Max Gust Speed -    
Visibility 10 miles    
Events      
Averages and records for this station are not official NWS values.
T = Trace of Precipitation, MM = Missing Value Source: NWS Daily Summary

Daily Weather History Graph

Daily Weather History Graph

Search for Another Location

Airport or City:

Trip Planner

Search our weather history database for the weather conditions in past years. The results will help you decide how hot, cold, wet, or windy it might be!

Date:

Astronomy

Oct. 22, 2013 Rise Set
Actual Time 7:37 AM CDT 6:46 PM CDT
Civil Twilight 7:12 AM CDT 7:11 PM CDT
Nautical Twilight 6:43 AM CDT 7:40 PM CDT
Astronomical Twilight 6:15 AM CDT 8:09 PM CDT
Moon 9:36 PM CDT 10:58 AM CDT
Length of Visible Light 11h 59m
Length of Day
11h 09m
Waning Gibbous, 86% of the Moon is Illuminated
Oct 22
Waning Gibbous
Oct 26
Last Quarter
Nov 3
New
Nov 9
First Quarter
Nov 17
Full

Hourly Weather History & Observations

Time (CDT) Temp. Windchill Dew Point Humidity Pressure Visibility Wind Dir Wind Speed Gust Speed Precip Events Conditions
12:15 AM 51.8 °F - 44.6 °F 76% 30.14 in 10.0 mi North 8.1 mph - N/A   Clear
12:35 AM 51.8 °F - 44.6 °F 76% 30.15 in 10.0 mi North 6.9 mph - N/A   Clear
12:55 AM 51.8 °F - 44.6 °F 76% 30.15 in 10.0 mi North 6.9 mph - N/A   Clear
1:15 AM 51.8 °F - 42.8 °F 71% 30.16 in 10.0 mi North 6.9 mph - N/A   Clear
1:35 AM 51.8 °F - 42.8 °F 71% 30.16 in 10.0 mi North 3.5 mph - N/A   Clear
1:55 AM 51.8 °F - 44.6 °F 76% 30.16 in 10.0 mi North 3.5 mph - N/A   Clear
2:15 AM 51.8 °F - 44.6 °F 76% 30.16 in 10.0 mi Calm Calm - N/A   Clear
2:35 AM 51.8 °F - 44.6 °F 76% 30.17 in 10.0 mi Calm Calm - N/A   Clear
2:55 AM 50.0 °F - 44.6 °F 82% 30.17 in 10.0 mi NNW 4.6 mph - N/A   Clear
3:15 AM 50.0 °F - 44.6 °F 82% 30.17 in 10.0 mi Calm Calm - N/A   Clear
3:35 AM 50.0 °F - 42.8 °F 76% 30.16 in 10.0 mi Calm Calm - N/A   Clear
3:55 AM 50.0 °F - 42.8 °F 76% 30.16 in 10.0 mi Calm Calm - N/A   Clear
4:15 AM 50.0 °F - 42.8 °F 76% 30.15 in 10.0 mi Calm Calm - N/A   Clear
4:35 AM 48.2 °F - 42.8 °F 82% 30.15 in 10.0 mi Calm Calm - N/A   Clear
4:55 AM 48.2 °F - 42.8 °F 82% 30.15 in 10.0 mi West 3.5 mph - N/A   Clear
5:15 AM 46.4 °F 44.3 °F 41.0 °F 81% 30.14 in 10.0 mi WNW 4.6 mph - N/A   Clear
5:35 AM 46.4 °F - 41.0 °F 81% 30.15 in 10.0 mi Calm Calm - N/A   Clear
5:55 AM 46.4 °F - 41.0 °F 81% 30.16 in 10.0 mi Calm Calm - N/A   Clear
6:15 AM 46.4 °F - 41.0 °F 81% 30.15 in 10.0 mi Calm Calm - N/A   Clear
6:35 AM 44.6 °F - 41.0 °F 87% 30.16 in 10.0 mi Calm Calm - N/A   Clear
6:50 AM 46.4 °F - 39.2 °F 76% 30.16 in 10.0 mi Calm Calm - N/A   Clear
6:55 AM 46.4 °F - 39.2 °F 76% 30.16 in 10.0 mi Calm Calm - N/A   Clear
7:50 AM 46.4 °F 45.2 °F 39.2 °F 76% 30.17 in 10.0 mi West 3.5 mph - N/A   Clear
8:50 AM 50.0 °F - 39.2 °F 66% 30.19 in 10.0 mi Calm Calm - N/A   Clear
9:50 AM 57.2 °F - 39.2 °F 51% 30.21 in 10.0 mi NW 3.5 mph - N/A   Clear
10:50 AM 62.6 °F - 42.8 °F 48% 30.21 in 10.0 mi Calm Calm - N/A   Clear
11:50 AM 66.2 °F - 35.6 °F 32% 30.20 in 10.0 mi Calm Calm - N/A   Clear
12:50 PM 69.8 °F - 35.6 °F 28% 30.16 in 10.0 mi WNW 5.8 mph - N/A   Clear
1:50 PM 71.6 °F - 35.6 °F 27% 30.13 in 10.0 mi Calm Calm - N/A   Clear
2:57 PM 73.4 °F - 33.8 °F 23% 30.10 in 10.0 mi WSW 8.1 mph - N/A   Clear
3:55 PM 73.4 °F - 37.4 °F 27% 30.09 in 10.0 mi West 6.9 mph - N/A   Clear
4:57 PM 75.2 °F - 37.4 °F 25% 30.08 in 10.0 mi WSW 9.2 mph - N/A   Clear
5:50 PM 75.2 °F - 39.2 °F 27% 30.07 in 10.0 mi WSW 6.9 mph - N/A   Clear
6:57 PM 71.6 °F - 41.0 °F 33% 30.06 in 10.0 mi SW 3.5 mph - N/A   Clear
7:50 PM 66.2 °F - 44.6 °F 46% 30.07 in 10.0 mi Calm Calm - N/A   Clear
9:15 PM 62.6 °F - 44.6 °F 52% 30.08 in 10.0 mi Calm Calm - N/A   Clear
9:35 PM 62.6 °F - 44.6 °F 52% 30.08 in 10.0 mi Calm Calm - N/A   Clear
10:15 PM 60.8 °F - 44.6 °F 55% 30.09 in 10.0 mi Calm Calm - N/A   Clear
10:35 PM 59.0 °F - 44.6 °F 59% 30.10 in 10.0 mi Calm Calm - N/A   Clear
10:55 PM 59.0 °F - 44.6 °F 59% 30.10 in 10.0 mi Calm Calm - N/A   Clear
11:15 PM 59.0 °F - 44.6 °F 59% 30.11 in 10.0 mi Calm Calm - N/A   Clear
11:35 PM 59.0 °F - 44.6 °F 59% 30.11 in 10.0 mi Calm Calm - N/A   Clear
11:55 PM 57.2 °F - 44.6 °F 63% 30.11 in 10.0 mi SSW 3.5 mph - N/A   Clear